• In Hungary
  • List of Countries
  • For 7 days
  • Water Temperature
  • Satellite Maps
  • Weather Map
  • News
  • Weather Widgets
  • user-avatar
    Login

    Hourly Weather Novaya Znamenka

    Today, 22 August, Wednesday

    Time Temperature Precipitation Wind Pressure Humidity
    00:00 +14°C° 0 mm 3 mps 742 mmHg 89%
    01:00 +13°C° 0 mm 3 mps 743 mmHg 89%
    02:00 +12°C° 0 mm 3 mps 743 mmHg 90%
    03:00 +11°C° 0 mm 3 mps 743 mmHg 90%
    04:00 +11°C° 0 mm 3 mps 744 mmHg 90%
    05:00 +11°C° 0 mm 3 mps 744 mmHg 90%
    06:00 +10°C° 0 mm 3 mps 745 mmHg 90%
    07:00 +11°C° 0 mm 4 mps 745 mmHg 84%
    08:00 +13°C° 0 mm 5 mps 745 mmHg 78%
    09:00 +14°C° 0 mm 5 mps 745 mmHg 71%
    10:00 +15°C° 0 mm 6 mps 746 mmHg 66%
    11:00 +16°C° 0 mm 6 mps 746 mmHg 60%
    12:00 +19°C° 0 mm 6 mps 746 mmHg 54%
    13:00 +19°C° 0 mm 6 mps 746 mmHg 53%
    14:00 +19°C° 0 mm 6 mps 747 mmHg 51%
    15:00 +20°C° 0 mm 6 mps 747 mmHg 49%
    16:00 +19°C° 0 mm 5 mps 747 mmHg 53%
    17:00 +19°C° 0 mm 4 mps 747 mmHg 57%
    18:00 +18°C° 0 mm 3 mps 748 mmHg 61%
    19:00 +17°C° 0 mm 3 mps 748 mmHg 64%
    20:00 +14°C° 0 mm 3 mps 748 mmHg 68%
    21:00 +12°C° 0 mm 3 mps 749 mmHg 71%
    22:00 +12°C° 0 mm 3 mps 749 mmHg 73%
    23:00 +11°C° 0 mm 3 mps 750 mmHg 76%

    Tomorrow, 23 August, Thursday

    Time Temperature Precipitation Wind Pressure Humidity
    00:00 +10°C° 0 mm 3 mps 750 mmHg 78%
    01:00 +10°C° 0 mm 2 mps 750 mmHg 79%
    02:00 +9°C° 0 mm 2 mps 751 mmHg 80%
    03:00 +9°C° 0 mm 2 mps 751 mmHg 82%
    04:00 +9°C° 0 mm 2 mps 751 mmHg 83%
    05:00 +8°C° 0 mm 2 mps 752 mmHg 83%
    06:00 +8°C° 0 mm 2 mps 752 mmHg 84%
    07:00 +10°C° 0 mm 2 mps 752 mmHg 77%
    08:00 +13°C° 0 mm 2 mps 752 mmHg 71%
    09:00 +15°C° 0 mm 2 mps 752 mmHg 64%
    10:00 +16°C° 0 mm 2 mps 752 mmHg 59%
    11:00 +18°C° 0 mm 2 mps 752 mmHg 53%
    12:00 +19°C° 0 mm 2 mps 752 mmHg 48%
    13:00 +19°C° 0 mm 2 mps 752 mmHg 47%
    14:00 +20°C° 0 mm 2 mps 752 mmHg 46%
    15:00 +20°C° 0 mm 2 mps 752 mmHg 45%
    16:00 +20°C° 0 mm 2 mps 751 mmHg 49%
    17:00 +20°C° 0 mm 2 mps 751 mmHg 53%
    18:00 +19°C° 0 mm 2 mps 751 mmHg 57%
    19:00 +18°C° 0 mm 1 mps 751 mmHg 61%
    20:00 +16°C° 0 mm 1 mps 751 mmHg 65%
    21:00 +14°C° 0 mm 1 mps 751 mmHg 69%
    22:00 +13°C° 0 mm 1 mps 751 mmHg 70%
    23:00 +13°C° 0 mm 1 mps 751 mmHg 71%

    Day after tomorrow, 24 August, Friday

    Time Temperature Precipitation Wind Pressure Humidity
    00:00 +13°C° 0 mm 1 mps 752 mmHg 72%
    01:00 +12°C° 0 mm 1 mps 752 mmHg 74%
    02:00 +12°C° 0 mm 1 mps 752 mmHg 75%
    03:00 +12°C° 0 mm 1 mps 752 mmHg 76%
    04:00 +11°C° 0 mm 1 mps 752 mmHg 77%
    05:00 +11°C° 0 mm 1 mps 752 mmHg 78%
    06:00 +11°C° 0 mm 1 mps 751 mmHg 79%
    07:00 +13°C° 0 mm 1 mps 751 mmHg 73%
    08:00 +15°C° 0 mm 1 mps 751 mmHg 67%
    09:00 +17°C° 0 mm 2 mps 751 mmHg 61%
    10:00 +19°C° 0 mm 2 mps 751 mmHg 57%
    11:00 +20°C° 0 mm 2 mps 751 mmHg 53%
    12:00 +21°C° 0 mm 2 mps 751 mmHg 49%
    13:00 +23°C° 0 mm 2 mps 751 mmHg 48%
    14:00 +23°C° 0 mm 2 mps 750 mmHg 47%
    15:00 +24°C° 0 mm 2 mps 750 mmHg 46%
    16:00 +23°C° 0 mm 2 mps 750 mmHg 49%
    17:00 +23°C° 0 mm 2 mps 750 mmHg 53%
    18:00 +23°C° 0 mm 1 mps 749 mmHg 56%
    19:00 +21°C° 0 mm 1 mps 749 mmHg 60%
    20:00 +19°C° 0 mm 1 mps 749 mmHg 63%
    21:00 +16°C° 0 mm 1 mps 749 mmHg 67%
    22:00 +15°C° 0 mm 2 mps 749 mmHg 68%
    23:00 +15°C° 0 mm 2 mps 749 mmHg 69%

    25 August, Saturday

    Time Temperature Precipitation Wind Pressure Humidity
    00:00 +14°C° 0 mm 2 mps 749 mmHg 70%
    01:00 +14°C° 0 mm 2 mps 749 mmHg 70%
    02:00 +14°C° 0 mm 2 mps 749 mmHg 71%
    03:00 +13°C° 0 mm 2 mps 749 mmHg 71%
    04:00 +13°C° 0 mm 2 mps 749 mmHg 72%
    05:00 +13°C° 0 mm 2 mps 749 mmHg 73%
    06:00 +13°C° 0 mm 2 mps 749 mmHg 74%
    07:00 +15°C° 0 mm 2 mps 749 mmHg 69%
    08:00 +17°C° 0 mm 2 mps 750 mmHg 64%
    09:00 +19°C° 0 mm 2 mps 750 mmHg 60%
    10:00 +20°C° 0 mm 3 mps 750 mmHg 55%
    11:00 +22°C° 0 mm 3 mps 749 mmHg 51%
    12:00 +24°C° 0 mm 3 mps 749 mmHg 46%
    13:00 +25°C° 0 mm 3 mps 749 mmHg 46%
    14:00 +25°C° 0 mm 3 mps 749 mmHg 45%
    15:00 +26°C° 0 mm 3 mps 749 mmHg 45%
    16:00 +25°C° 0 mm 3 mps 748 mmHg 49%
    17:00 +24°C° 0 mm 2 mps 748 mmHg 53%
    18:00 +24°C° 0 mm 2 mps 748 mmHg 58%
    19:00 +21°C° 0 mm 2 mps 748 mmHg 61%
    20:00 +19°C° 0 mm 2 mps 748 mmHg 64%
    21:00 +17°C° 0 mm 2 mps 748 mmHg 66%
    22:00 +17°C° 0 mm 2 mps 748 mmHg 67%
    23:00 +16°C° 0 mm 2 mps 748 mmHg 68%

    26 August, Sunday

    Time Temperature Precipitation Wind Pressure Humidity
    00:00 +16°C° 0 mm 2 mps 749 mmHg 69%
    01:00 +15°C° 0 mm 2 mps 749 mmHg 69%
    02:00 +15°C° 0 mm 2 mps 749 mmHg 69%
    03:00 +15°C° 0 mm 2 mps 749 mmHg 70%
    04:00 +14°C° 0 mm 2 mps 749 mmHg 71%
    05:00 +14°C° 0 mm 2 mps 749 mmHg 72%
    06:00 +14°C° 0 mm 2 mps 749 mmHg 73%
    07:00 +16°C° 0 mm 3 mps 749 mmHg 69%
    08:00 +18°C° 0 mm 3 mps 749 mmHg 65%
    09:00 +20°C° 0 mm 3 mps 749 mmHg 61%
    10:00 +22°C° 0 mm 4 mps 749 mmHg 56%
    11:00 +23°C° 0 mm 4 mps 749 mmHg 51%
    12:00 +26°C° 0 mm 4 mps 748 mmHg 46%
    13:00 +26°C° 0 mm 4 mps 748 mmHg 44%
    14:00 +27°C° 0 mm 4 mps 748 mmHg 43%
    15:00 +27°C° 0 mm 4 mps 748 mmHg 42%
    16:00 +26°C° 0 mm 3 mps 748 mmHg 46%
    17:00 +26°C° 0 mm 3 mps 747 mmHg 51%
    18:00 +25°C° 0 mm 2 mps 747 mmHg 56%
    19:00 +22°C° 0 mm 3 mps 747 mmHg 59%
    20:00 +21°C° 0 mm 3 mps 747 mmHg 62%
    21:00 +19°C° 0 mm 3 mps 747 mmHg 65%
    22:00 +19°C° 0 mm 3 mps 747 mmHg 66%
    23:00 +18°C° 0 mm 3 mps 747 mmHg 66%

    27 August, Monday

    Time Temperature Precipitation Wind Pressure Humidity
    00:00 +18°C° 0 mm 3 mps 747 mmHg 67%
    01:00 +17°C° 0 mm 3 mps 747 mmHg 68%
    02:00 +17°C° 0 mm 3 mps 747 mmHg 69%
    03:00 +17°C° 0 mm 3 mps 747 mmHg 70%
    04:00 +16°C° 0 mm 3 mps 747 mmHg 74%
    05:00 +16°C° 0 mm 3 mps 747 mmHg 77%
    06:00 +16°C° 0 mm 3 mps 748 mmHg 80%
    07:00 +18°C° 0 mm 3 mps 748 mmHg 75%
    08:00 +20°C° 0 mm 4 mps 748 mmHg 71%
    09:00 +22°C° 0 mm 4 mps 748 mmHg 67%
    10:00 +23°C° 0 mm 4 mps 748 mmHg 61%
    11:00 +25°C° 0 mm 5 mps 748 mmHg 56%
    12:00 +27°C° 0 mm 5 mps 748 mmHg 50%
    13:00 +27°C° 0 mm 5 mps 748 mmHg 50%
    14:00 +27°C° 0 mm 4 mps 748 mmHg 49%
    15:00 +28°C° 0 mm 4 mps 748 mmHg 48%
    16:00 +27°C° 0 mm 4 mps 747 mmHg 52%
    17:00 +26°C° 0 mm 3 mps 747 mmHg 55%
    18:00 +25°C° 0 mm 3 mps 747 mmHg 59%
    19:00 +24°C° 0 mm 3 mps 747 mmHg 61%
    20:00 +21°C° 0 mm 3 mps 748 mmHg 64%
    21:00 +19°C° 0 mm 3 mps 748 mmHg 66%
    22:00 +19°C° 0 mm 2 mps 748 mmHg 66%
    23:00 +18°C° 0 mm 2 mps 748 mmHg 66%
    Show more